<?xml version="1.0"?>
<gpx xmlns="http://www.topografix.com/GPX/1/1" xmlns:xsi="http://www.w3.org/2001/XMLSchema-instance" version="1.1" creator="GPX RubyGem 1.0.0 -- http://dougfales.github.io/gpx/" xsi:schemaLocation="http://www.topografix.com/GPX/1/1 http://www.topografix.com/GPX/1/1/gpx.xsd">
  <metadata>
    <name/>
    <time>2026-05-07T11:26:54+00:00</time>
    <bound minlat="90.0" minlon="180.0" maxlat="-90.0" maxlon="-180.0"/>
  </metadata>
  <trk>
    <name/>
    <trkseg>
      <trkpt lat="45.47231" lon="10.988578">
        <time>1970-01-01T00:00:00+00:00</time>
        <ele>105.0</ele>
      </trkpt>
      <trkpt lat="45.472449" lon="10.989161">
        <time>1970-01-01T00:00:00+00:00</time>
        <ele>106.0</ele>
      </trkpt>
      <trkpt lat="45.47214" lon="10.989047">
        <time>1970-01-01T00:00:00+00:00</time>
        <ele>107.0</ele>
      </trkpt>
      <trkpt lat="45.472052" lon="10.989004">
        <time>1970-01-01T00:00:00+00:00</time>
        <ele>107.0</ele>
      </trkpt>
      <trkpt lat="45.472043" lon="10.98892">
        <time>1970-01-01T00:00:00+00:00</time>
        <ele>106.0</ele>
      </trkpt>
      <trkpt lat="45.471824" lon="10.988274">
        <time>1970-01-01T00:00:00+00:00</time>
        <ele>103.0</ele>
      </trkpt>
      <trkpt lat="45.471791" lon="10.988148">
        <time>1970-01-01T00:00:00+00:00</time>
        <ele>103.0</ele>
      </trkpt>
      <trkpt lat="45.471765" lon="10.987985">
        <time>1970-01-01T00:00:00+00:00</time>
        <ele>102.0</ele>
      </trkpt>
      <trkpt lat="45.471764" lon="10.987882">
        <time>1970-01-01T00:00:00+00:00</time>
        <ele>102.0</ele>
      </trkpt>
      <trkpt lat="45.471821" lon="10.987795">
        <time>1970-01-01T00:00:00+00:00</time>
        <ele>104.0</ele>
      </trkpt>
      <trkpt lat="45.472047" lon="10.987573">
        <time>1970-01-01T00:00:00+00:00</time>
        <ele>107.0</ele>
      </trkpt>
      <trkpt lat="45.472146" lon="10.98731">
        <time>1970-01-01T00:00:00+00:00</time>
        <ele>109.0</ele>
      </trkpt>
      <trkpt lat="45.472182" lon="10.987119">
        <time>1970-01-01T00:00:00+00:00</time>
        <ele>111.0</ele>
      </trkpt>
      <trkpt lat="45.472274" lon="10.986914">
        <time>1970-01-01T00:00:00+00:00</time>
        <ele>112.0</ele>
      </trkpt>
      <trkpt lat="45.472329" lon="10.986749">
        <time>1970-01-01T00:00:00+00:00</time>
        <ele>112.0</ele>
      </trkpt>
      <trkpt lat="45.472365" lon="10.986658">
        <time>1970-01-01T00:00:00+00:00</time>
        <ele>113.0</ele>
      </trkpt>
      <trkpt lat="45.472553" lon="10.986319">
        <time>1970-01-01T00:00:00+00:00</time>
        <ele>118.0</ele>
      </trkpt>
      <trkpt lat="45.472674" lon="10.986199">
        <time>1970-01-01T00:00:00+00:00</time>
        <ele>121.0</ele>
      </trkpt>
      <trkpt lat="45.472878" lon="10.986147">
        <time>1970-01-01T00:00:00+00:00</time>
        <ele>124.0</ele>
      </trkpt>
      <trkpt lat="45.473222" lon="10.986139">
        <time>1970-01-01T00:00:00+00:00</time>
        <ele>129.0</ele>
      </trkpt>
      <trkpt lat="45.473288" lon="10.986019">
        <time>1970-01-01T00:00:00+00:00</time>
        <ele>132.0</ele>
      </trkpt>
      <trkpt lat="45.473276" lon="10.985838">
        <time>1970-01-01T00:00:00+00:00</time>
        <ele>135.0</ele>
      </trkpt>
      <trkpt lat="45.473191" lon="10.985641">
        <time>1970-01-01T00:00:00+00:00</time>
        <ele>139.0</ele>
      </trkpt>
      <trkpt lat="45.473047" lon="10.985452">
        <time>1970-01-01T00:00:00+00:00</time>
        <ele>142.0</ele>
      </trkpt>
      <trkpt lat="45.472752" lon="10.985126">
        <time>1970-01-01T00:00:00+00:00</time>
        <ele>145.0</ele>
      </trkpt>
      <trkpt lat="45.472174" lon="10.984413">
        <time>1970-01-01T00:00:00+00:00</time>
        <ele>155.0</ele>
      </trkpt>
      <trkpt lat="45.47203" lon="10.984036">
        <time>1970-01-01T00:00:00+00:00</time>
        <ele>163.0</ele>
      </trkpt>
      <trkpt lat="45.471964" lon="10.983401">
        <time>1970-01-01T00:00:00+00:00</time>
        <ele>170.0</ele>
      </trkpt>
      <trkpt lat="45.471969" lon="10.983308">
        <time>1970-01-01T00:00:00+00:00</time>
        <ele>170.0</ele>
      </trkpt>
      <trkpt lat="45.472041" lon="10.983334">
        <time>1970-01-01T00:00:00+00:00</time>
        <ele>171.0</ele>
      </trkpt>
      <trkpt lat="45.472323" lon="10.983418">
        <time>1970-01-01T00:00:00+00:00</time>
        <ele>174.0</ele>
      </trkpt>
      <trkpt lat="45.47259" lon="10.983461">
        <time>1970-01-01T00:00:00+00:00</time>
        <ele>179.0</ele>
      </trkpt>
      <trkpt lat="45.472667" lon="10.983495">
        <time>1970-01-01T00:00:00+00:00</time>
        <ele>180.0</ele>
      </trkpt>
      <trkpt lat="45.472827" lon="10.983512">
        <time>1970-01-01T00:00:00+00:00</time>
        <ele>184.0</ele>
      </trkpt>
      <trkpt lat="45.472859" lon="10.983565">
        <time>1970-01-01T00:00:00+00:00</time>
        <ele>184.0</ele>
      </trkpt>
      <trkpt lat="45.473006" lon="10.983549">
        <time>1970-01-01T00:00:00+00:00</time>
        <ele>188.0</ele>
      </trkpt>
      <trkpt lat="45.473107" lon="10.983592">
        <time>1970-01-01T00:00:00+00:00</time>
        <ele>191.0</ele>
      </trkpt>
      <trkpt lat="45.473282" lon="10.983533">
        <time>1970-01-01T00:00:00+00:00</time>
        <ele>196.0</ele>
      </trkpt>
      <trkpt lat="45.473322" lon="10.983501">
        <time>1970-01-01T00:00:00+00:00</time>
        <ele>197.0</ele>
      </trkpt>
      <trkpt lat="45.473407" lon="10.983512">
        <time>1970-01-01T00:00:00+00:00</time>
        <ele>198.0</ele>
      </trkpt>
      <trkpt lat="45.473441" lon="10.983471">
        <time>1970-01-01T00:00:00+00:00</time>
        <ele>199.0</ele>
      </trkpt>
      <trkpt lat="45.473574" lon="10.983493">
        <time>1970-01-01T00:00:00+00:00</time>
        <ele>203.0</ele>
      </trkpt>
      <trkpt lat="45.473647" lon="10.983541">
        <time>1970-01-01T00:00:00+00:00</time>
        <ele>206.0</ele>
      </trkpt>
      <trkpt lat="45.473691" lon="10.983544">
        <time>1970-01-01T00:00:00+00:00</time>
        <ele>207.0</ele>
      </trkpt>
      <trkpt lat="45.473822" lon="10.983495">
        <time>1970-01-01T00:00:00+00:00</time>
        <ele>212.0</ele>
      </trkpt>
      <trkpt lat="45.474012" lon="10.983528">
        <time>1970-01-01T00:00:00+00:00</time>
        <ele>217.0</ele>
      </trkpt>
      <trkpt lat="45.474052" lon="10.983466">
        <time>1970-01-01T00:00:00+00:00</time>
        <ele>217.0</ele>
      </trkpt>
      <trkpt lat="45.474069" lon="10.983498">
        <time>1970-01-01T00:00:00+00:00</time>
        <ele>218.0</ele>
      </trkpt>
      <trkpt lat="45.474116" lon="10.983442">
        <time>1970-01-01T00:00:00+00:00</time>
        <ele>219.0</ele>
      </trkpt>
      <trkpt lat="45.474219" lon="10.983377">
        <time>1970-01-01T00:00:00+00:00</time>
        <ele>222.0</ele>
      </trkpt>
      <trkpt lat="45.474291" lon="10.98341">
        <time>1970-01-01T00:00:00+00:00</time>
        <ele>224.0</ele>
      </trkpt>
      <trkpt lat="45.474454" lon="10.983388">
        <time>1970-01-01T00:00:00+00:00</time>
        <ele>229.0</ele>
      </trkpt>
      <trkpt lat="45.474484" lon="10.983404">
        <time>1970-01-01T00:00:00+00:00</time>
        <ele>230.0</ele>
      </trkpt>
      <trkpt lat="45.474603" lon="10.983305">
        <time>1970-01-01T00:00:00+00:00</time>
        <ele>233.0</ele>
      </trkpt>
      <trkpt lat="45.474686" lon="10.983292">
        <time>1970-01-01T00:00:00+00:00</time>
        <ele>236.0</ele>
      </trkpt>
      <trkpt lat="45.474765" lon="10.983225">
        <time>1970-01-01T00:00:00+00:00</time>
        <ele>238.0</ele>
      </trkpt>
      <trkpt lat="45.474814" lon="10.983208">
        <time>1970-01-01T00:00:00+00:00</time>
        <ele>240.0</ele>
      </trkpt>
      <trkpt lat="45.474921" lon="10.983278">
        <time>1970-01-01T00:00:00+00:00</time>
        <ele>244.0</ele>
      </trkpt>
      <trkpt lat="45.474987" lon="10.983348">
        <time>1970-01-01T00:00:00+00:00</time>
        <ele>246.0</ele>
      </trkpt>
      <trkpt lat="45.475088" lon="10.983334">
        <time>1970-01-01T00:00:00+00:00</time>
        <ele>248.0</ele>
      </trkpt>
      <trkpt lat="45.475195" lon="10.98319">
        <time>1970-01-01T00:00:00+00:00</time>
        <ele>251.0</ele>
      </trkpt>
      <trkpt lat="45.475237" lon="10.983157">
        <time>1970-01-01T00:00:00+00:00</time>
        <ele>252.0</ele>
      </trkpt>
      <trkpt lat="45.475248" lon="10.983074">
        <time>1970-01-01T00:00:00+00:00</time>
        <ele>253.0</ele>
      </trkpt>
      <trkpt lat="45.475543" lon="10.983088">
        <time>1970-01-01T00:00:00+00:00</time>
        <ele>261.0</ele>
      </trkpt>
      <trkpt lat="45.475823" lon="10.98302">
        <time>1970-01-01T00:00:00+00:00</time>
        <ele>267.0</ele>
      </trkpt>
      <trkpt lat="45.475895" lon="10.982958">
        <time>1970-01-01T00:00:00+00:00</time>
        <ele>268.0</ele>
      </trkpt>
      <trkpt lat="45.475895" lon="10.982958">
        <time>1970-01-01T00:00:00+00:00</time>
        <ele>268.0</ele>
      </trkpt>
      <trkpt lat="45.475823" lon="10.98302">
        <time>1970-01-01T00:00:00+00:00</time>
        <ele>267.0</ele>
      </trkpt>
      <trkpt lat="45.475543" lon="10.983088">
        <time>1970-01-01T00:00:00+00:00</time>
        <ele>261.0</ele>
      </trkpt>
      <trkpt lat="45.475248" lon="10.983074">
        <time>1970-01-01T00:00:00+00:00</time>
        <ele>253.0</ele>
      </trkpt>
      <trkpt lat="45.475237" lon="10.983157">
        <time>1970-01-01T00:00:00+00:00</time>
        <ele>252.0</ele>
      </trkpt>
      <trkpt lat="45.475195" lon="10.98319">
        <time>1970-01-01T00:00:00+00:00</time>
        <ele>251.0</ele>
      </trkpt>
      <trkpt lat="45.475088" lon="10.983334">
        <time>1970-01-01T00:00:00+00:00</time>
        <ele>248.0</ele>
      </trkpt>
      <trkpt lat="45.474987" lon="10.983348">
        <time>1970-01-01T00:00:00+00:00</time>
        <ele>246.0</ele>
      </trkpt>
      <trkpt lat="45.474921" lon="10.983278">
        <time>1970-01-01T00:00:00+00:00</time>
        <ele>244.0</ele>
      </trkpt>
      <trkpt lat="45.474814" lon="10.983208">
        <time>1970-01-01T00:00:00+00:00</time>
        <ele>240.0</ele>
      </trkpt>
      <trkpt lat="45.474765" lon="10.983225">
        <time>1970-01-01T00:00:00+00:00</time>
        <ele>238.0</ele>
      </trkpt>
      <trkpt lat="45.474686" lon="10.983292">
        <time>1970-01-01T00:00:00+00:00</time>
        <ele>236.0</ele>
      </trkpt>
      <trkpt lat="45.474603" lon="10.983305">
        <time>1970-01-01T00:00:00+00:00</time>
        <ele>233.0</ele>
      </trkpt>
      <trkpt lat="45.474484" lon="10.983404">
        <time>1970-01-01T00:00:00+00:00</time>
        <ele>230.0</ele>
      </trkpt>
      <trkpt lat="45.474454" lon="10.983388">
        <time>1970-01-01T00:00:00+00:00</time>
        <ele>229.0</ele>
      </trkpt>
      <trkpt lat="45.474291" lon="10.98341">
        <time>1970-01-01T00:00:00+00:00</time>
        <ele>224.0</ele>
      </trkpt>
      <trkpt lat="45.474219" lon="10.983377">
        <time>1970-01-01T00:00:00+00:00</time>
        <ele>222.0</ele>
      </trkpt>
      <trkpt lat="45.474116" lon="10.983442">
        <time>1970-01-01T00:00:00+00:00</time>
        <ele>219.0</ele>
      </trkpt>
      <trkpt lat="45.474069" lon="10.983498">
        <time>1970-01-01T00:00:00+00:00</time>
        <ele>218.0</ele>
      </trkpt>
      <trkpt lat="45.474052" lon="10.983466">
        <time>1970-01-01T00:00:00+00:00</time>
        <ele>217.0</ele>
      </trkpt>
      <trkpt lat="45.474012" lon="10.983528">
        <time>1970-01-01T00:00:00+00:00</time>
        <ele>217.0</ele>
      </trkpt>
      <trkpt lat="45.473822" lon="10.983495">
        <time>1970-01-01T00:00:00+00:00</time>
        <ele>212.0</ele>
      </trkpt>
      <trkpt lat="45.473691" lon="10.983544">
        <time>1970-01-01T00:00:00+00:00</time>
        <ele>207.0</ele>
      </trkpt>
      <trkpt lat="45.473647" lon="10.983541">
        <time>1970-01-01T00:00:00+00:00</time>
        <ele>206.0</ele>
      </trkpt>
      <trkpt lat="45.473574" lon="10.983493">
        <time>1970-01-01T00:00:00+00:00</time>
        <ele>203.0</ele>
      </trkpt>
      <trkpt lat="45.473441" lon="10.983471">
        <time>1970-01-01T00:00:00+00:00</time>
        <ele>199.0</ele>
      </trkpt>
      <trkpt lat="45.473407" lon="10.983512">
        <time>1970-01-01T00:00:00+00:00</time>
        <ele>198.0</ele>
      </trkpt>
      <trkpt lat="45.473322" lon="10.983501">
        <time>1970-01-01T00:00:00+00:00</time>
        <ele>197.0</ele>
      </trkpt>
      <trkpt lat="45.473282" lon="10.983533">
        <time>1970-01-01T00:00:00+00:00</time>
        <ele>196.0</ele>
      </trkpt>
      <trkpt lat="45.473107" lon="10.983592">
        <time>1970-01-01T00:00:00+00:00</time>
        <ele>191.0</ele>
      </trkpt>
      <trkpt lat="45.473006" lon="10.983549">
        <time>1970-01-01T00:00:00+00:00</time>
        <ele>188.0</ele>
      </trkpt>
      <trkpt lat="45.472859" lon="10.983565">
        <time>1970-01-01T00:00:00+00:00</time>
        <ele>184.0</ele>
      </trkpt>
      <trkpt lat="45.472827" lon="10.983512">
        <time>1970-01-01T00:00:00+00:00</time>
        <ele>184.0</ele>
      </trkpt>
      <trkpt lat="45.472667" lon="10.983495">
        <time>1970-01-01T00:00:00+00:00</time>
        <ele>180.0</ele>
      </trkpt>
      <trkpt lat="45.47259" lon="10.983461">
        <time>1970-01-01T00:00:00+00:00</time>
        <ele>179.0</ele>
      </trkpt>
      <trkpt lat="45.472323" lon="10.983418">
        <time>1970-01-01T00:00:00+00:00</time>
        <ele>174.0</ele>
      </trkpt>
      <trkpt lat="45.472041" lon="10.983334">
        <time>1970-01-01T00:00:00+00:00</time>
        <ele>171.0</ele>
      </trkpt>
      <trkpt lat="45.471969" lon="10.983308">
        <time>1970-01-01T00:00:00+00:00</time>
        <ele>170.0</ele>
      </trkpt>
      <trkpt lat="45.471964" lon="10.983401">
        <time>1970-01-01T00:00:00+00:00</time>
        <ele>170.0</ele>
      </trkpt>
      <trkpt lat="45.47203" lon="10.984036">
        <time>1970-01-01T00:00:00+00:00</time>
        <ele>163.0</ele>
      </trkpt>
      <trkpt lat="45.472174" lon="10.984413">
        <time>1970-01-01T00:00:00+00:00</time>
        <ele>155.0</ele>
      </trkpt>
      <trkpt lat="45.472752" lon="10.985126">
        <time>1970-01-01T00:00:00+00:00</time>
        <ele>145.0</ele>
      </trkpt>
      <trkpt lat="45.473047" lon="10.985452">
        <time>1970-01-01T00:00:00+00:00</time>
        <ele>142.0</ele>
      </trkpt>
      <trkpt lat="45.473191" lon="10.985641">
        <time>1970-01-01T00:00:00+00:00</time>
        <ele>139.0</ele>
      </trkpt>
      <trkpt lat="45.473276" lon="10.985838">
        <time>1970-01-01T00:00:00+00:00</time>
        <ele>135.0</ele>
      </trkpt>
      <trkpt lat="45.473288" lon="10.986019">
        <time>1970-01-01T00:00:00+00:00</time>
        <ele>132.0</ele>
      </trkpt>
      <trkpt lat="45.473222" lon="10.986139">
        <time>1970-01-01T00:00:00+00:00</time>
        <ele>129.0</ele>
      </trkpt>
      <trkpt lat="45.472878" lon="10.986147">
        <time>1970-01-01T00:00:00+00:00</time>
        <ele>124.0</ele>
      </trkpt>
      <trkpt lat="45.472674" lon="10.986199">
        <time>1970-01-01T00:00:00+00:00</time>
        <ele>121.0</ele>
      </trkpt>
      <trkpt lat="45.472553" lon="10.986319">
        <time>1970-01-01T00:00:00+00:00</time>
        <ele>118.0</ele>
      </trkpt>
      <trkpt lat="45.472365" lon="10.986658">
        <time>1970-01-01T00:00:00+00:00</time>
        <ele>113.0</ele>
      </trkpt>
      <trkpt lat="45.472329" lon="10.986749">
        <time>1970-01-01T00:00:00+00:00</time>
        <ele>112.0</ele>
      </trkpt>
      <trkpt lat="45.472274" lon="10.986914">
        <time>1970-01-01T00:00:00+00:00</time>
        <ele>112.0</ele>
      </trkpt>
      <trkpt lat="45.472182" lon="10.987119">
        <time>1970-01-01T00:00:00+00:00</time>
        <ele>111.0</ele>
      </trkpt>
      <trkpt lat="45.472146" lon="10.98731">
        <time>1970-01-01T00:00:00+00:00</time>
        <ele>109.0</ele>
      </trkpt>
      <trkpt lat="45.472047" lon="10.987573">
        <time>1970-01-01T00:00:00+00:00</time>
        <ele>107.0</ele>
      </trkpt>
      <trkpt lat="45.471821" lon="10.987795">
        <time>1970-01-01T00:00:00+00:00</time>
        <ele>104.0</ele>
      </trkpt>
      <trkpt lat="45.471764" lon="10.987882">
        <time>1970-01-01T00:00:00+00:00</time>
        <ele>102.0</ele>
      </trkpt>
      <trkpt lat="45.471765" lon="10.987985">
        <time>1970-01-01T00:00:00+00:00</time>
        <ele>102.0</ele>
      </trkpt>
      <trkpt lat="45.471791" lon="10.988148">
        <time>1970-01-01T00:00:00+00:00</time>
        <ele>103.0</ele>
      </trkpt>
      <trkpt lat="45.471824" lon="10.988274">
        <time>1970-01-01T00:00:00+00:00</time>
        <ele>103.0</ele>
      </trkpt>
      <trkpt lat="45.472043" lon="10.98892">
        <time>1970-01-01T00:00:00+00:00</time>
        <ele>106.0</ele>
      </trkpt>
      <trkpt lat="45.472052" lon="10.989004">
        <time>1970-01-01T00:00:00+00:00</time>
        <ele>107.0</ele>
      </trkpt>
      <trkpt lat="45.47214" lon="10.989047">
        <time>1970-01-01T00:00:00+00:00</time>
        <ele>107.0</ele>
      </trkpt>
      <trkpt lat="45.472449" lon="10.989161">
        <time>1970-01-01T00:00:00+00:00</time>
        <ele>106.0</ele>
      </trkpt>
      <trkpt lat="45.47231" lon="10.988578">
        <time>1970-01-01T00:00:00+00:00</time>
        <ele>105.0</ele>
      </trkpt>
    </trkseg>
  </trk>
</gpx>
